Torna al catalogo

STARLINK-4082

AttivoComunicazioniVLEO
NORAD 52658·PAYLOAD·🇺🇸 United States

Lanciato May 18, 2022 da Cape Canaveral Space Force Station

Loading…

Prossimi Passaggi (prossime 24 ore)

TLE

AggiornatoSource: CelesTrak SupGP

Epoca: Sep 14, 2026, 21:00 UTC

1 52658C 22053C   26257.87548611  .00016679  00000+0  10460-2 0  2578
2 52658  53.1599  24.2048 0001199  81.2935 273.0305 15.08825553    11

Traccia STARLINK-4082 in tempo reale con AllMySat

Download on the App Store